SL-14 DEB, 47080

Orbit data source: Space-Track

SL-14 DEB, 47080 is space debris in LEO originally from a launch on Thu, 15 Aug 1991 UTC launched from the Plesetsk Missile And Space Complex (PKMTR). Debris objects in space refer to the collection of defunct objects orbiting the Earth. Examples of debris include non-operational satellites, rocket bodies, and fragments generated from explosions, collisions, or faulty payload assembly.

Loading next visibility...
Identifier
47080, 1991-056DE
Orbit
LEO
Country
Flag of CISCIS
Related business
Manufacturer
Unknown
Mission
Spacecraft
Bus & Motor
Unknown
Mass
Unknown
Launch date (UTC)
1991-08-15 (34 years ago)
Launch vehicle
Unknown
Launch site
Plesetsk Missile And Space Complex (PKMTR)
Object type
Payload
Rocket body
Debris
Shape & HBR
Unknown
Radar Cross Section
Small (<0.1 m²)

Expand to show TLE details & history
Last TLE update: 2 days ago

TLE from 2 days ago
0 SL-14 DEB
1 47080U 91056DE  25259.81637654  .00012187  00000-0  76032-2 0  9992
2 47080  82.5066 186.6518 0130477 236.0044 122.8675 14.00576049243583
Epoch: 2025-09-16T19:35Z
TLE epoch observation values (Epoch: 2025-09-16T19:35:34.933Z)
Latitude
0.00003°
Longitude
-103.245°
Altitude
947.077 km
Speed
7.352 km/s
True Right ascension
12h 26m 36s
True Declination
0° 00' 00"
Sunlit
Object was in daylight at epoch
Visualization orbit readout
Latitude
Unknown
Longitude
Unknown
Altitude
Unknown
Speed
Unknown
Apparent Right ascension
Unknown
Apparent Declination
Unknown
Sunlit
N/A
Visualization observer readout
Local Sidereal Time
12:19:30
Azimuth
Unknown
Elevation
Unknown
Doppler factor
Unknown
Orbital elements
Apogee altitude
983.75 km
Perigee altitude
794.113 km
Semi-major axis
7,267.068 km
Eccentricity
0.01305
Inclination
82.5066°
RAAN
186.6518°
Arg. of periapsis
236.0044°
True anomaly
124.1122°
Mean anomaly
122.8675°
Eccentric anomaly
123.49096°
Mean motion
3.50352 °/min
Orbital period
102.75 mins
BSTAR
0.0076032
Loading maneuver chart data...
Computing Atmospheric mass density...
Loading historical data...
Loading historical data...
Loading historical data...
Loading historical data...
Loading historical data...
Loading historical data...
Loading historical data...

Documentation

Showing up to 5 results
|